sat.trackr.live / text

‹ back to catalog

STARLINK-37242

NORAD 68728 · 2026-082A

PAYLOAD ACTIVE UNKNOWN

§ Identity

Operator
Country
US
Launch date
2026-04-15
Launch site
AFWTR
Launch vehicle
Mass (kg)
RCS (m²)

Purposes: comms

External: N2YO · Heavens-Above · Gunter

§ Orbital elements

Epoch: 2026-05-25T04:00:03.998880Z

Period
92.95 min
Inclination
97.2856°
Eccentricity
0.0001655
Mean motion
15.49184452 rev/d
Perigee alt
418.0 km
Apogee alt
420.2 km
Semi-major
6,797.2 km
B*
1.5085e-4
RAAN
8.7788°
Arg perigee
94.9148°
Mean anomaly
355.9126°
Rev number
579

§ Raw data

STARLINK-372421 68728U 26082A   26145.16671295  .00008121  00000+0  15085-3 0  99972 68728  97.2856   8.7788 0001655  94.9148 355.9126 15.49184452  5795

JSON: /api/v1/satellites/68728 · /tle

For live sub-satellite position, see the globe view (requires WebGL).

§ Visibility from observer

Set your observer location to see the next 7 days of passes ≥ 10°. The values pass through the URL so the page stays shareable.

No JS? Fill the form by hand. The geolocation button needs JavaScript.